• In United Kingdom
  • List of Countries
  • For 7 days
  • Water Temperature
  • Satellite Maps
  • Weather Map
  • Weather Widgets
  • user-avatar
    Login

    Hourly Weather Okoyo

    Today, 16 December, Saturday

    Time Temperature Precipitation Wind Pressure Humidity
    00:00 +28°C° 0 mm 1 mps 722 mmHg 68%
    01:00 +27°C° 0 mm 1 mps 722 mmHg 70%
    02:00 +27°C° 0.1 mm 1 mps 722 mmHg 73%
    03:00 +26°C° 0.1 mm 1 mps 722 mmHg 76%
    04:00 +26°C° 0.1 mm 1 mps 722 mmHg 79%
    05:00 +26°C° 0.4 mm 1 mps 722 mmHg 80%
    06:00 +26°C° 0.4 mm 2 mps 723 mmHg 81%
    07:00 +26°C° 0 mm 2 mps 723 mmHg 87%
    08:00 +28°C° 0.8 mm 2 mps 724 mmHg 78%
    09:00 +30°C° 0.8 mm 1 mps 724 mmHg 69%
    10:00 +32°C° 0.8 mm 1 mps 724 mmHg 60%
    11:00 +33°C° 0.1 mm 1 mps 723 mmHg 55%
    12:00 +34°C° 0.1 mm 1 mps 723 mmHg 49%
    13:00 +36°C° 0.1 mm 1 mps 722 mmHg 44%
    14:00 +35°C° 0 mm 1 mps 722 mmHg 45%
    15:00 +33°C° 0 mm 0 mps 721 mmHg 47%
    16:00 +32°C° 0 mm 0 mps 720 mmHg 48%
    17:00 +31°C° 0 mm 0 mps 721 mmHg 52%
    18:00 +31°C° 0 mm 1 mps 721 mmHg 55%
    19:00 +30°C° 0 mm 1 mps 721 mmHg 59%
    20:00 +29°C° 0.4 mm 1 mps 722 mmHg 64%
    21:00 +29°C° 0.4 mm 1 mps 722 mmHg 69%
    22:00 +28°C° 0.4 mm 1 mps 723 mmHg 74%
    23:00 +27°C° 0.2 mm 2 mps 723 mmHg 78%

    Tomorrow, 17 December, Sunday

    Time Temperature Precipitation Wind Pressure Humidity
    00:00 +27°C° 0.2 mm 2 mps 723 mmHg 81%
    01:00 +26°C° 0.2 mm 2 mps 722 mmHg 85%
    02:00 +26°C° 0.2 mm 2 mps 722 mmHg 86%
    03:00 +26°C° 0.2 mm 2 mps 722 mmHg 87%
    04:00 +25°C° 0.2 mm 2 mps 722 mmHg 88%
    05:00 +25°C° 0 mm 2 mps 722 mmHg 87%
    06:00 +26°C° 0 mm 3 mps 722 mmHg 86%
    07:00 +26°C° 0 mm 3 mps 723 mmHg 85%
    08:00 +28°C° 0 mm 3 mps 723 mmHg 77%
    09:00 +30°C° 0 mm 3 mps 723 mmHg 70%
    10:00 +33°C° 0 mm 3 mps 724 mmHg 62%
    11:00 +33°C° 0.5 mm 3 mps 723 mmHg 60%
    12:00 +34°C° 0.5 mm 2 mps 722 mmHg 57%
    13:00 +35°C° 0.5 mm 2 mps 722 mmHg 55%
    14:00 +34°C° 0.3 mm 2 mps 721 mmHg 56%
    15:00 +34°C° 0.3 mm 2 mps 721 mmHg 58%
    16:00 +32°C° 0.3 mm 2 mps 720 mmHg 59%
    17:00 +30°C° 0.6 mm 2 mps 721 mmHg 67%
    18:00 +29°C° 0.6 mm 2 mps 722 mmHg 75%
    19:00 +27°C° 0.6 mm 2 mps 722 mmHg 84%
    20:00 +27°C° 0.3 mm 3 mps 723 mmHg 84%
    21:00 +26°C° 0.3 mm 3 mps 723 mmHg 85%
    22:00 +26°C° 0.3 mm 3 mps 724 mmHg 86%
    23:00 +26°C° 0 mm 3 mps 724 mmHg 86%

    Day after tomorrow, 18 December, Monday

    Time Temperature Precipitation Wind Pressure Humidity
    00:00 +25°C° 0 mm 3 mps 723 mmHg 87%
    01:00 +25°C° 0 mm 3 mps 723 mmHg 87%
    02:00 +25°C° 0 mm 2 mps 723 mmHg 88%
    03:00 +25°C° 0 mm 2 mps 723 mmHg 88%
    04:00 +25°C° 0 mm 2 mps 722 mmHg 89%
    05:00 +25°C° 0 mm 2 mps 723 mmHg 88%
    06:00 +25°C° 0 mm 2 mps 723 mmHg 88%
    07:00 +25°C° 0 mm 2 mps 724 mmHg 87%
    08:00 +26°C° 0.2 mm 3 mps 724 mmHg 84%
    09:00 +26°C° 0.2 mm 3 mps 724 mmHg 82%
    10:00 +27°C° 0.2 mm 3 mps 724 mmHg 79%
    11:00 +28°C° 0.3 mm 3 mps 724 mmHg 75%
    12:00 +29°C° 0.3 mm 3 mps 723 mmHg 71%
    13:00 +30°C° 0.3 mm 3 mps 722 mmHg 67%
    14:00 +30°C° 0.3 mm 2 mps 722 mmHg 64%
    15:00 +31°C° 0.3 mm 2 mps 721 mmHg 61%
    16:00 +31°C° 0.3 mm 2 mps 720 mmHg 58%
    17:00 +30°C° 0 mm 2 mps 721 mmHg 64%
    18:00 +28°C° 0 mm 1 mps 721 mmHg 69%
    19:00 +27°C° 0 mm 1 mps 722 mmHg 75%
    20:00 +26°C° 0 mm 1 mps 723 mmHg 77%
    21:00 +26°C° 0 mm 1 mps 723 mmHg 80%
    22:00 +26°C° 0 mm 1 mps 724 mmHg 82%
    23:00 +25°C° 0.1 mm 1 mps 723 mmHg 84%

    19 December, Tuesday

    Time Temperature Precipitation Wind Pressure Humidity
    00:00 +25°C° 0.1 mm 1 mps 723 mmHg 86%
    01:00 +24°C° 0.1 mm 1 mps 723 mmHg 88%
    02:00 +24°C° 0 mm 1 mps 722 mmHg 88%
    03:00 +24°C° 0 mm 2 mps 722 mmHg 89%
    04:00 +24°C° 0 mm 2 mps 722 mmHg 89%
    05:00 +24°C° 0 mm 2 mps 722 mmHg 89%
    06:00 +25°C° 0 mm 2 mps 723 mmHg 88%
    07:00 +25°C° 0 mm 2 mps 723 mmHg 87%
    08:00 +27°C° 0 mm 2 mps 723 mmHg 79%
    09:00 +28°C° 0 mm 2 mps 724 mmHg 71%
    10:00 +30°C° 0 mm 2 mps 724 mmHg 63%
    11:00 +31°C° 0 mm 2 mps 723 mmHg 59%
    12:00 +32°C° 0 mm 2 mps 722 mmHg 55%
    13:00 +34°C° 0 mm 2 mps 722 mmHg 51%
    14:00 +34°C° 0.2 mm 2 mps 721 mmHg 52%
    15:00 +32°C° 0.2 mm 1 mps 721 mmHg 53%
    16:00 +32°C° 0.2 mm 1 mps 720 mmHg 54%
    17:00 +31°C° 0.1 mm 1 mps 721 mmHg 60%
    18:00 +29°C° 0.1 mm 1 mps 721 mmHg 65%
    19:00 +28°C° 0.1 mm 1 mps 722 mmHg 71%
    20:00 +27°C° 0.2 mm 1 mps 722 mmHg 73%
    21:00 +27°C° 0.2 mm 1 mps 722 mmHg 76%
    22:00 +26°C° 0.2 mm 1 mps 723 mmHg 78%
    23:00 +26°C° 0 mm 1 mps 722 mmHg 80%

    20 December, Wednesday

    Time Temperature Precipitation Wind Pressure Humidity
    00:00 +26°C° 0 mm 1 mps 722 mmHg 81%
    01:00 +25°C° 0 mm 2 mps 722 mmHg 82%
    02:00 +25°C° 0 mm 2 mps 722 mmHg 84%
    03:00 +25°C° 0 mm 2 mps 722 mmHg 86%
    04:00 +24°C° 0 mm 2 mps 721 mmHg 88%
    05:00 +25°C° 0 mm 2 mps 722 mmHg 86%
    06:00 +25°C° 0 mm 2 mps 723 mmHg 85%
    07:00 +26°C° 0 mm 2 mps 723 mmHg 83%
    08:00 +28°C° 0 mm 2 mps 723 mmHg 74%
    09:00 +30°C° 0 mm 2 mps 724 mmHg 65%
    10:00 +32°C° 0 mm 2 mps 724 mmHg 56%
    11:00 +32°C° 0.2 mm 2 mps 723 mmHg 55%
    12:00 +33°C° 0.2 mm 1 mps 723 mmHg 53%
    13:00 +34°C° 0.2 mm 1 mps 722 mmHg 51%
    14:00 +33°C° 0.3 mm 1 mps 722 mmHg 52%
    15:00 +33°C° 0.3 mm 1 mps 721 mmHg 54%
    16:00 +32°C° 0.3 mm 1 mps 721 mmHg 55%
    17:00 +31°C° 0.8 mm 1 mps 721 mmHg 64%
    18:00 +29°C° 0.8 mm 1 mps 722 mmHg 73%
    19:00 +27°C° 0.8 mm 1 mps 722 mmHg 82%
    20:00 +26°C° 0.5 mm 1 mps 723 mmHg 84%
    21:00 +26°C° 0.5 mm 1 mps 723 mmHg 85%
    22:00 +26°C° 0.5 mm 1 mps 724 mmHg 87%
    23:00 +25°C° 0.1 mm 1 mps 723 mmHg 87%

    21 December, Thursday

    Time Temperature Precipitation Wind Pressure Humidity
    00:00 +25°C° 0.1 mm 1 mps 723 mmHg 88%
    01:00 +25°C° 0.1 mm 1 mps 723 mmHg 89%
    02:00 +25°C° 0.3 mm 1 mps 723 mmHg 89%
    03:00 +24°C° 0.3 mm 1 mps 723 mmHg 90%
    04:00 +24°C° 0.3 mm 1 mps 723 mmHg 90%
    05:00 +24°C° 0.1 mm 1 mps 724 mmHg 89%
    06:00 +25°C° 0.1 mm 2 mps 724 mmHg 87%
    07:00 +25°C° 0.1 mm 2 mps 724 mmHg 86%
    08:00 +27°C° 0.2 mm 2 mps 724 mmHg 77%
    09:00 +29°C° 0.2 mm 2 mps 724 mmHg 68%
    10:00 +31°C° 0.2 mm 2 mps 725 mmHg 59%
    11:00 +34°C° 0.2 mm 2 mps 724 mmHg 54%
    12:00 +34°C° 0.2 mm 1 mps 723 mmHg 50%
    13:00 +36°C° 0.2 mm 1 mps 723 mmHg 45%
    14:00 +34°C° 0.5 mm 1 mps 722 mmHg 51%
    15:00 +32°C° 0.5 mm 1 mps 721 mmHg 57%
    16:00 +31°C° 0.5 mm 1 mps 721 mmHg 63%
    17:00 +29°C° 0.3 mm 1 mps 721 mmHg 68%
    18:00 +28°C° 0.3 mm 1 mps 722 mmHg 72%
    19:00 +27°C° 0.3 mm 1 mps 722 mmHg 77%
    20:00 +27°C° 0.4 mm 1 mps 723 mmHg 79%
    21:00 +26°C° 0.4 mm 1 mps 723 mmHg 81%
    22:00 +26°C° 0.4 mm 1 mps 724 mmHg 83%
    23:00 +25°C° 0.3 mm 1 mps 723 mmHg 85%
    Show more